Location: Cronhütte
(48.9135°N, 9.6869°E)
Time: 20:54:53
(UTC+00:00)

Cosmos 1733 Rocket - Pass Details

Date: 23 May 2024
Orbit: 600 x 623 km, 82.5° (Epoch: 23 June)

Event Time Altitude Azimuth Distance (km) Brightness Sun altitude
Rises 00:24:37 0° 345° (NNW) 2,867 7.5 -18.9°
Reaches altitude 10° 00:26:54 10° 339° (NNW) 1,961 6.4 -18.8°
Maximum altitude 00:31:02 46° 267° (W) 817 3.5 -18.6°
Enters shadow 00:32:05 38° 227° (SW) 933 3.5 -18.5°
